{"data":{"norad_id":65448,"intl_designator":"2025-194Q","name":"STARLINK-35030","alt_names":[],"object_type":"PAYLOAD","status":"ACTIVE","operator":null,"country":"US","launch_date":"2025-09-03","launch_site_code":"AFWTR","launch_vehicle":null,"mission":null,"orbit_class":"UNKNOWN","rcs_meters":null,"size_class":null,"mass_kg":null,"dimensions":null,"purposes":["comms"],"wikipedia_slug":null,"has_3d_model":false,"image_url":null,"decayed_at":null,"tle_current":{"epoch":"2026-09-20T13:38:58.633152Z","epoch_age_seconds":108921,"freshness":"FRESH","line1":"1 65448U 25194Q   26263.56873418  .00011795  00000+0  36701-3 0  9991","line2":"2 65448  97.2844 113.1400 0001881  55.1990 304.9429 15.33451624 59076","mean_motion":15.33451624,"eccentricity":0.0001881,"inclination_deg":97.2844,"raan_deg":113.14,"arg_perigee_deg":55.199,"mean_anomaly_deg":304.9429,"bstar":0.00036701,"rev_number":5907,"period_min":93.905799013324,"perigee_km":464.23617365177,"apogee_km":466.81075871915,"semimajor_km":6843.6604661855,"source":"CELESTRAK","updated_at":"2026-09-21T09:00:35.611246Z"}}}